Weather History for Tampa, FL

Change the Weather History Date:

Friday, January 25, 2013

  Actual Average Record
Temperature  
Mean Temperature 61 °F 61 °F  
Max Temperature 72 °F 70 °F 84 °F (1950)
Min Temperature 50 °F 52 °F 29 °F (1905)
Degree Days  
Heating Degree Days 4 6  
Month to date heating degree days 46 150  
Since 1 July heating degree days 172 333  
Cooling Degree Days 0 2  
Month to date cooling degree days 98 48  
Year to date cooling degree days 98 48  
Growing Degree Days 11 (Base 50)    
Moisture  
Dew Point 50 °F    
Average Humidity 66    
Maximum Humidity 93    
Minimum Humidity 38    
Precipitation  
Precipitation 0.00 in 0.09 in 1.40 in (2011)
Month to date precipitation 0.49 1.74  
Year to date precipitation 0.49 1.74  
Sea Level Pressure  
Sea Level Pressure 30.27 in    
Wind  
Wind Speed 4 mph (West)    
Max Wind Speed 10 mph    
Max Gust Speed 16 mph    
Visibility 8 miles    
Events      
T = Trace of Precipitation, MM = Missing Value Source: NWS Daily Summary

Daily Weather History Graph

Daily Weather History Graph

Search for Another Location

Airport:

Trip Planner

Search our weather history database for the weather conditions in past years. The results will help you decide how hot, cold, wet, or windy it might be!

Date:

Astronomy

Jan. 25, 2013 Rise Set
Actual Time 7:20 AM EST 6:05 PM EST
Civil Twilight 6:55 AM EST 6:30 PM EST
Nautical Twilight 6:27 AM EST 6:58 PM EST
Astronomical Twilight 5:59 AM EST 7:26 PM EST
Moon 5:01 PM EST (1/25) 5:58 AM EST (1/25)
Length of Visible Light 11h 34m
Length of Day
10h 44m
Waxing Gibbous, 98% of the Moon is Illuminated
Jan 25
Waxing Gibbous
Jan 26
Full
Feb 3
Last Quarter
Feb 10
New
Feb 17
First Quarter

Hourly Weather History & Observations

Time (EST) Temp. Dew Point Humidity Pressure Visibility Wind Dir Wind Speed Gust Speed Precip Events Conditions
12:53 AM 54.0 °F 51.1 °F 90% 30.32 in 6.0 mi Calm Calm - N/A   Clear
1:53 AM 52.0 °F 48.9 °F 89% 30.30 in 6.0 mi Calm Calm - N/A   Clear
2:53 AM 54.0 °F 51.1 °F 90% 30.28 in 5.0 mi Calm Calm - N/A   Clear
3:53 AM 51.1 °F 48.9 °F 92% 30.27 in 6.0 mi Calm Calm - N/A   Clear
4:53 AM 51.1 °F 48.9 °F 92% 30.28 in 5.0 mi Calm Calm - N/A   Clear
5:53 AM 51.1 °F 48.9 °F 92% 30.29 in 6.0 mi Calm Calm - N/A   Clear
6:53 AM 53.1 °F 51.1 °F 93% 30.32 in 5.0 mi Calm Calm - N/A   Clear
7:53 AM 53.1 °F 51.1 °F 93% 30.32 in 3.0 mi Calm Calm - N/A   Clear
8:53 AM 57.9 °F 55.0 °F 90% 30.32 in 5.0 mi Calm Calm - N/A   Clear
9:53 AM 63.0 °F 55.0 °F 75% 30.34 in 9.0 mi NE 4.6 mph - N/A   Clear
10:53 AM 68.0 °F 52.0 °F 56% 30.33 in 10.0 mi East 3.5 mph - N/A   Clear
11:53 AM 70.0 °F 48.0 °F 46% 30.31 in 10.0 mi WSW 5.8 mph - N/A   Clear
12:53 PM 71.1 °F 46.0 °F 41% 30.27 in 10.0 mi WSW 8.1 mph - N/A   Clear
1:53 PM 71.1 °F 44.1 °F 38% 30.25 in 10.0 mi West 10.4 mph - N/A   Clear
2:53 PM 71.1 °F 46.9 °F 42% 30.22 in 8.0 mi WSW 10.4 mph - N/A   Clear
3:53 PM 71.1 °F 46.0 °F 41% 30.21 in 10.0 mi WSW 5.8 mph - N/A   Clear
4:53 PM 71.1 °F 44.1 °F 38% 30.21 in 10.0 mi SW 3.5 mph - N/A   Partly Cloudy
5:53 PM 68.0 °F 46.9 °F 47% 30.22 in 10.0 mi WNW 8.1 mph - N/A   Partly Cloudy
6:53 PM 64.9 °F 50.0 °F 58% 30.23 in 10.0 mi West 6.9 mph - N/A   Clear
7:53 PM 63.0 °F 50.0 °F 63% 30.25 in 10.0 mi WNW 3.5 mph - N/A   Clear
8:53 PM 62.1 °F 52.0 °F 70% 30.25 in 10.0 mi Calm Calm - N/A   Clear
9:53 PM 61.0 °F 53.1 °F 75% 30.24 in 10.0 mi West 4.6 mph - N/A   Clear
10:53 PM 61.0 °F 54.0 °F 78% 30.24 in 10.0 mi WSW 3.5 mph - N/A   Clear
11:53 PM 61.0 °F 55.0 °F 81% 30.25 in 10.0 mi West 4.6 mph - N/A   Clear